Lake Lanier Weather Center

Moon Phase Calendar



Lake Lanier Water Level
Online Cameras

 


      

Current Conditions in Olde Federal Pointe
4/23/2024 1:32:38 AM

44°F
Feels Like 44
Clear
Humidity
80%
Pressure
30.15"
Wind
0
Dew Point
39°F
UV Index
0/10 (Low)
Visibility
6 mi

Hourly Forecast

Date & Time Tue, Apr 23
1:00 AM
Tue, Apr 23
2:00 AM
Tue, Apr 23
3:00 AM
Tue, Apr 23
4:00 AM
Tue, Apr 23
5:00 AM
Tue, Apr 23
6:00 AM
Tue, Apr 23
7:00 AM
Tue, Apr 23
8:00 AM
Tue, Apr 23
9:00 AM
Tue, Apr 23
10:00 AM
Tue, Apr 23
11:00 AM
Tue, Apr 23
12:00 PM
Tue, Apr 23
1:00 PM
Tue, Apr 23
2:00 PM
Tue, Apr 23
3:00 PM
Tue, Apr 23
4:00 PM
Tue, Apr 23
5:00 PM
Tue, Apr 23
6:00 PM
Tue, Apr 23
7:00 PM
Tue, Apr 23
8:00 PM
Tue, Apr 23
9:00 PM
Tue, Apr 23
10:00 PM
Tue, Apr 23
11:00 PM
Wed, Apr 24
12:00 AM
Wed, Apr 24
1:00 AM
Wed, Apr 24
2:00 AM
Wed, Apr 24
3:00 AM
Wed, Apr 24
4:00 AM
Wed, Apr 24
5:00 AM
Wed, Apr 24
6:00 AM
Wed, Apr 24
7:00 AM
Wed, Apr 24
8:00 AM
Wed, Apr 24
9:00 AM
Wed, Apr 24
10:00 AM
Wed, Apr 24
11:00 AM
Wed, Apr 24
12:00 PM
Wed, Apr 24
1:00 PM
Wed, Apr 24
2:00 PM
Wed, Apr 24
3:00 PM
Wed, Apr 24
4:00 PM
Wed, Apr 24
5:00 PM
Wed, Apr 24
6:00 PM
Wed, Apr 24
7:00 PM
Wed, Apr 24
8:00 PM
Wed, Apr 24
9:00 PM
Wed, Apr 24
10:00 PM
Wed, Apr 24
11:00 PM
Thu, Apr 25
12:00 AM
Condition
Clear

Clear

Clear

Clear

Clear

Clear

Clear

Clear

Clear

Clear

Clear

Clear

Clear

Clear

Clear

Clear

Clouds

Clouds

Clouds

Clouds

Clouds

Clouds

Clouds

Clouds

Clear

Clear

Clear

Clear

Clear

Clouds

Clear

Clear

Clouds

Clouds

Clouds

Clouds

Clouds

Clouds

Clouds

Clouds

Clouds

Clouds

Clouds

Clouds

Clouds

Clouds

Clouds

Clouds
Temperature 44°F44°F44°F43°F42°F41°F39°F44°F51°F56°F60°F64°F67°F69°F70°F71°F71°F70°F66°F58°F54°F53°F52°F51°F50°F49°F48°F48°F48°F47°F47°F51°F57°F61°F65°F68°F69°F69°F69°F66°F69°F68°F66°F60°F57°F56°F55°F54°F
Feels Like 44°F44°F42°F42°F40°F39°F39°F44°F49°F54°F58°F61°F64°F67°F68°F69°F69°F69°F65°F57°F53°F51°F50°F49°F49°F48°F47°F46°F46°F45°F45°F49°F55°F59°F64°F67°F68°F68°F68°F65°F68°F67°F65°F60°F56°F55°F54°F54°F
Cloudiness 1%0%0%0%0%1%0%0%9%9%10%9%8%7%6%7%21%17%16%15%11%11%11%11%10%10%9%8%10%11%10%10%23%40%35%37%34%38%71%79%64%60%62%63%28%66%75%83%
Visibility 6 mi6 mi6 mi6 mi6 mi6 mi6 mi6 mi6 mi6 mi6 mi6 mi6 mi6 mi6 mi6 mi6 mi6 mi6 mi6 mi6 mi6 mi6 mi6 mi6 mi6 mi6 mi6 mi6 mi6 mi6 mi6 mi6 mi6 mi6 mi6 mi6 mi6 mi6 mi6 mi6 mi6 mi6 mi6 mi6 mi6 mi6 mi6 mi
Precipitation 0%0%0%0%0%0%0%0%0%0%0%0%0%0%0%0%0%0%0%0%0%0%0%0%0%0%0%0%0%0%0%0%0%0%0%0%0%0%0%0%0%0%0%0%0%0%0%0%
Humidity 76%80%77%77%80%85%90%81%66%54%44%36%31%30%30%30%31%39%51%66%67%66%68%74%79%82%85%86%86%87%88%81%68%61%54%51%52%54%56%63%58%61%68%81%87%88%89%89%
Dew Point 37°F39°F37°F36°F36°F37°F37°F39°F40°F40°F38°F36°F35°F36°F37°F38°F39°F44°F47°F47°F44°F42°F42°F43°F44°F44°F44°F44°F44°F43°F43°F45°F46°F47°F48°F49°F50°F52°F53°F53°F54°F54°F55°F54°F53°F52°F52°F51°F
Pressure 30.15"30.15"30.18"30.18"30.21"30.21"30.27"30.27"30.27"30.24"30.24"30.21"30.21"30.15"30.15"30.09"30.09"30.09"30.09"30.09"30.12"30.12"30.15"30.15"30.12"30.12"30.12"30.12"30.12"30.12"30.15"30.15"30.15"30.15"30.12"30.12"30.12"30.09"30.09"30.09"30.09"30.09"30.09"30.12"30.12"30.15"30.15"30.15"
Wind Speed 2 mph2.7 mph3.1 mph3 mph3 mph3 mph2.7 mph1.7 mph0.4 mph3.5 mph5.5 mph6.6 mph7.2 mph7.8 mph8.3 mph8.8 mph9 mph7.4 mph5.9 mph4.4 mph4.5 mph4.4 mph4.4 mph4.5 mph4.5 mph4.4 mph4.6 mph4.5 mph4.7 mph4.8 mph5.1 mph5.4 mph8.2 mph9 mph8.6 mph9.5 mph9.8 mph10.5 mph11.2 mph9.2 mph10.4 mph9.8 mph6.4 mph3.8 mph3 mph3.3 mph3.8 mph3.3 mph
Wind
Direction
36°
NE
48°
NE
37°
NE
39°
NE
25°
NNE
32°
NNE
39°
NE
32°
NNE
160°
SSE
203°
SSW
220°
SW
222°
SW
230°
SW
229°
SW
229°
SW
231°
SW
234°
SW
239°
WSW
241°
WSW
243°
WSW
247°
WSW
242°
WSW
253°
WSW
262°
W
261°
W
268°
W
272°
W
264°
W
264°
W
260°
W
267°
W
272°
W
269°
W
276°
W
274°
W
273°
W
270°
W
282°
WNW
290°
WNW
284°
WNW
294°
WNW
297°
WNW
306°
NW
305°
NW
310°
NW
307°
NW
300°
WNW
319°
NW

Daily Forecast

Date High Low Precip. Humidity
Today
Apr 23

Clear
71 °F
39 °F
0%
31%
Wednesday
Apr 24

Clouds
69 °F
47 °F
0%
52%
Thursday
Apr 25

Clouds
70 °F
48 °F
0%
51%
Friday
Apr 26

Clouds
61 °F
55 °F
0%
87%
Saturday
Apr 27

Rain
67 °F
58 °F
20%
80%
Sunday
Apr 28

Clouds
78 °F
58 °F
0%
48%
Monday
Apr 29

Clouds
78 °F
57 °F
28%
51%
Tuesday
Apr 30

Rain
81 °F
60 °F
100%
63%
Wednesday
May 1

Clear
83 °F
58 °F
0%
31%
Thursday
May 2

Rain
81 °F
59 °F
72%
41%
Friday
May 3

Rain
83 °F
61 °F
100%
46%
Saturday
May 4

Clouds
80 °F
59 °F
0%
47%
Sunday
May 5

Clouds
77 °F
57 °F
0%
50%
Monday
May 6

Clear
81 °F
55 °F
0%
46%
Tuesday
May 7

Clouds
85 °F
59 °F
0%
43%
Wednesday
May 8

Clouds
84 °F
64 °F
0%
46%

Temperature 8-14 Day Outlook



Precipitation 8-14 Day Outlook






About Us
Contact Us
Site Map
Search Site
Advertise With Us
   
www.DiscoverLanier.com
THE LAKE LANIER WEBSITE

Copyright 2024, Lakes Online
Privacy    |    Legal